Location: Dead Woman Crossing
(43.5369°N, 106.3228°W)
Time: 16:50:58
(UTC+00:00)

ISS - Visible Passes

Search period start: 25 January 2022 00:00
Search period end: 04 February 2022 00:00
Orbit: 413 x 422 km, 51.6° (Epoch: 25 January)

Date Brightness Start Highest point End Pass type
(mag) Time Alt. Az. Time Alt. Az. Time Alt. Az.
25 Jan -2.3 01:00:03 10° W 01:03:01 29° NNW 01:05:31 13° NE visible
25 Jan -0.8 02:37:58 10° NW 02:38:27 12° NW 02:38:27 12° NW visible
26 Jan -1.9 01:49:42 10° NW 01:52:15 20° N 01:52:21 20° N visible
27 Jan -1.9 01:01:19 10° WNW 01:03:56 21° N 01:06:14 12° NE visible
27 Jan -0.8 02:38:42 10° NW 02:39:09 12° NW 02:39:09 12° NW visible
28 Jan -2.0 01:50:32 10° NW 01:53:00 21° N 01:53:00 21° N visible
29 Jan -1.9 01:02:13 10° NW 01:04:46 20° N 01:06:50 12° NE visible
29 Jan -1.0 02:39:03 10° NW 02:39:45 15° NW 02:39:45 15° NW visible
30 Jan -2.5 01:50:53 10° NW 01:53:35 28° N 01:53:35 28° N visible
31 Jan -2.3 01:02:37 10° NW 01:05:23 23° NNE 01:07:27 14° ENE visible
31 Jan -1.3 02:39:11 10° NW 02:40:22 20° NW 02:40:22 20° NW visible
01 Feb -3.5 01:50:55 10° NW 01:54:11 49° NNE 01:54:16 49° NNE visible
02 Feb -3.0 01:02:37 10° NW 01:05:44 35° NNE 01:08:15 14° E visible
02 Feb -1.6 02:39:21 10° WNW 02:41:11 27° W 02:41:11 27° W visible
03 Feb -3.6 01:50:51 10° WNW 01:54:11 71° SW 01:55:16 38° SE visible
